Tehachapi, CA

2:37 AM PST on January 19, 2018 (GMT -0800)
Tehachapi Municipal

Weather History for KTSP - August, 2014

Change the Weather History Date:

Tuesday, August 26, 2014

  Actual Average Record
Temperature  
Mean Temperature 65 °F -  
Max Temperature 82 °F 83 °F 95 °F (2011)
Min Temperature 48 °F 53 °F 48 °F (2012)
Growing Degree Days 15 (Base 50)    
Moisture  
Dew Point 35 °F    
Average Humidity 34    
Maximum Humidity 62    
Minimum Humidity 14    
Precipitation  
Precipitation 0.00 in - - ()
Sea Level Pressure  
Sea Level Pressure 30.09 in    
Wind  
Wind Speed 8 mph (WNW)    
Max Wind Speed 18 mph    
Max Gust Speed 25 mph    
Visibility 10 miles    
Events      
Averages and records for this station are not official NWS values.
T = Trace of Precipitation, MM = Missing Value Source: NWS Daily Summary

Daily Weather History Graph

Daily Weather History Graph

Search for Another Location

Airport or City:

Trip Planner

Search our weather history database for the weather conditions in past years. The results will help you decide how hot, cold, wet, or windy it might be!

Date:

Astronomy

Aug. 26, 2014 Rise Set
Actual Time 6:21 AM PDT 7:28 PM PDT
Civil Twilight 5:55 AM PDT 7:54 PM PDT
Nautical Twilight 5:24 AM PDT 8:25 PM PDT
Astronomical Twilight 4:52 AM PDT 8:57 PM PDT
Moon 7:22 AM PDT (8/26) 7:57 PM PDT (8/26)
Length of Visible Light 13h 58m
Length of Day
13h 06m
New Moon, 1% of the Moon is Illuminated
Aug 26
New Moon
Sep 2
First Quarter
Sep 8
Full
Sep 15
Last Quarter
Sep 23
New

Hourly Weather History & Observations

Time (PDT) Temp. Dew Point Humidity Pressure Visibility Wind Dir Wind Speed Gust Speed Precip Events Conditions
12:15 AM 62.6 °F 39.2 °F 42% 30.06 in 10.0 mi West 10.4 mph - N/A   Clear
12:35 AM 62.6 °F 39.2 °F 42% 30.06 in 10.0 mi NW 9.2 mph 16.1 mph N/A   Clear
12:55 AM 62.6 °F 39.2 °F 42% 30.07 in 10.0 mi WNW 6.9 mph - N/A   Clear
1:15 AM 60.8 °F 39.2 °F 45% 30.07 in 10.0 mi WSW 8.1 mph - N/A   Clear
1:35 AM 59.0 °F 39.2 °F 48% 30.06 in 10.0 mi WSW 8.1 mph - N/A   Clear
1:55 AM 59.0 °F 37.4 °F 45% 30.06 in 10.0 mi West 8.1 mph - N/A   Clear
2:15 AM 59.0 °F 37.4 °F 45% 30.06 in 10.0 mi WNW 4.6 mph - N/A   Clear
2:35 AM 57.2 °F 35.6 °F 44% 30.06 in 10.0 mi North 4.6 mph - N/A   Clear
2:55 AM 57.2 °F 35.6 °F 44% 30.06 in 10.0 mi WNW 3.5 mph - N/A   Clear
3:15 AM 57.2 °F 35.6 °F 44% 30.06 in 10.0 mi Calm Calm - N/A   Clear
3:35 AM 55.4 °F 33.8 °F 44% 30.06 in 10.0 mi Calm Calm - N/A   Clear
3:55 AM 55.4 °F 35.6 °F 47% 30.06 in 10.0 mi SSW 5.8 mph - N/A   Clear
4:15 AM 51.8 °F 37.4 °F 58% 30.07 in 10.0 mi SE 3.5 mph - N/A   Clear
4:35 AM 50.0 °F 35.6 °F 58% 30.06 in 10.0 mi SE 5.8 mph - N/A   Clear
4:55 AM 50.0 °F 37.4 °F 62% 30.06 in 10.0 mi Calm Calm - N/A   Clear
5:15 AM 48.2 °F 35.6 °F 62% 30.06 in 10.0 mi ESE 3.5 mph - N/A   Clear
5:35 AM 50.0 °F 35.6 °F 58% 30.07 in 10.0 mi Calm Calm - N/A   Clear
5:55 AM 48.2 °F 33.8 °F 58% 30.07 in 10.0 mi Calm Calm - N/A   Clear
6:15 AM 48.2 °F 33.8 °F 58% 30.08 in 7.0 mi ENE 3.5 mph - N/A   Clear
6:55 AM 48.2 °F 35.6 °F 62% 30.09 in 10.0 mi Calm Calm - N/A   Clear
7:55 AM 57.2 °F 35.6 °F 44% 30.10 in 10.0 mi Calm Calm - N/A   Clear
8:15 AM 60.8 °F 35.6 °F 39% 30.10 in 8.0 mi Calm Calm - N/A   Clear
8:35 AM 64.4 °F 37.4 °F 37% 30.10 in 10.0 mi NW 5.8 mph - N/A   Clear
8:55 AM 66.2 °F 35.6 °F 32% 30.10 in 10.0 mi WNW 4.6 mph - N/A   Clear
9:15 AM 68.0 °F 35.6 °F 30% 30.10 in 10.0 mi NW 8.1 mph - N/A   Clear
9:35 AM 71.6 °F 35.6 °F 27% 30.11 in 10.0 mi NW 10.4 mph - N/A   Clear
9:55 AM 73.4 °F 35.6 °F 25% 30.11 in 10.0 mi NW 10.4 mph - N/A   Clear
10:15 AM 73.4 °F 35.6 °F 25% 30.11 in 10.0 mi NW 10.4 mph - N/A   Clear
10:35 AM 75.2 °F 32.0 °F 21% 30.11 in 10.0 mi NW 9.2 mph - N/A   Clear
10:55 AM 75.2 °F 32.0 °F 21% 30.11 in 10.0 mi NW 9.2 mph - N/A   Clear
11:35 AM 78.8 °F 30.2 °F 17% 30.11 in 10.0 mi NW 11.5 mph 16.1 mph N/A   Clear
11:55 AM 78.8 °F 32.0 °F 18% 30.11 in 10.0 mi NW 12.7 mph - N/A   Clear
12:15 PM 80.6 °F 32.0 °F 17% 30.10 in 10.0 mi NW 10.4 mph - N/A   Clear
12:35 PM 80.6 °F 32.0 °F 17% 30.10 in 10.0 mi NNW 10.4 mph - N/A   Clear
12:55 PM 80.6 °F 33.8 °F 18% 30.10 in 10.0 mi NW 12.7 mph 19.6 mph N/A   Clear
1:15 PM 80.6 °F 32.0 °F 17% 30.10 in 10.0 mi NW 12.7 mph 18.4 mph N/A   Clear
1:35 PM 82.4 °F 32.0 °F 16% 30.09 in 10.0 mi NW 13.8 mph 20.7 mph N/A   Clear
1:55 PM 80.6 °F 32.0 °F 17% 30.09 in 10.0 mi NW 17.3 mph 21.9 mph N/A   Clear
2:15 PM 82.4 °F 32.0 °F 16% 30.08 in 10.0 mi NW 16.1 mph - N/A   Clear
2:35 PM 80.6 °F 30.2 °F 16% 30.08 in 9.0 mi NW 16.1 mph - N/A   Clear
2:55 PM 82.4 °F 32.0 °F 16% 30.07 in 10.0 mi NW 18.4 mph - N/A   Clear
3:15 PM 82.4 °F 32.0 °F 16% 30.07 in 10.0 mi NW 15.0 mph 20.7 mph N/A   Clear
3:35 PM 80.6 °F 32.0 °F 17% 30.07 in 10.0 mi NW 17.3 mph 25.3 mph N/A   Clear
3:55 PM 80.6 °F 28.4 °F 15% 30.07 in 10.0 mi NW 17.3 mph 23.0 mph N/A   Clear
4:15 PM 80.6 °F 26.6 °F 14% 30.07 in 10.0 mi NW 15.0 mph 18.4 mph N/A   Clear
4:35 PM 80.6 °F 32.0 °F 17% 30.07 in 10.0 mi NW 15.0 mph 19.6 mph N/A   Clear
4:55 PM 78.8 °F 30.2 °F 17% 30.07 in 10.0 mi NW 17.3 mph - N/A   Clear
5:15 PM 78.8 °F 32.0 °F 18% 30.07 in 10.0 mi NW 15.0 mph - N/A   Clear
5:35 PM 77.0 °F 33.8 °F 21% 30.07 in 10.0 mi NW 15.0 mph 18.4 mph N/A   Clear
5:55 PM 77.0 °F 35.6 °F 22% 30.08 in 10.0 mi NW 13.8 mph 19.6 mph N/A   Clear
6:15 PM 75.2 °F 35.6 °F 24% 30.08 in 10.0 mi NW 12.7 mph 18.4 mph N/A   Clear
6:35 PM 75.2 °F 37.4 °F 25% 30.08 in 10.0 mi NW 13.8 mph 18.4 mph N/A   Clear
6:55 PM 73.4 °F 37.4 °F 27% 30.08 in 10.0 mi WNW 13.8 mph - N/A   Clear
7:15 PM 71.6 °F 37.4 °F 29% 30.09 in 10.0 mi WNW 11.5 mph - N/A   Clear
7:35 PM 71.6 °F 37.4 °F 29% 30.09 in 10.0 mi WNW 10.4 mph - N/A   Clear
7:55 PM 69.8 °F 37.4 °F 31% 30.10 in 10.0 mi WNW 12.7 mph - N/A   Clear
8:15 PM 68.0 °F 37.4 °F 33% 30.11 in 10.0 mi WNW 10.4 mph - N/A   Clear
8:35 PM 68.0 °F 37.4 °F 33% 30.12 in 10.0 mi West 4.6 mph - N/A   Clear
8:55 PM 66.2 °F 39.2 °F 37% 30.14 in 10.0 mi West 5.8 mph - N/A   Clear
9:15 PM 64.4 °F 39.2 °F 40% 30.14 in 10.0 mi West 5.8 mph - N/A   Clear
9:35 PM 64.4 °F 39.2 °F 40% 30.14 in 10.0 mi WNW 9.2 mph - N/A   Clear
9:55 PM 64.4 °F 41.0 °F 42% 30.14 in 10.0 mi West 8.1 mph - N/A   Clear
10:15 PM 62.6 °F 39.2 °F 42% 30.15 in 10.0 mi West 9.2 mph - N/A   Clear
10:35 PM 62.6 °F 39.2 °F 42% 30.15 in 10.0 mi West 6.9 mph - N/A   Clear
10:55 PM 62.6 °F 39.2 °F 42% 30.15 in 10.0 mi Calm Calm - N/A   Clear
11:15 PM 62.6 °F 39.2 °F 42% 30.15 in 10.0 mi North 4.6 mph - N/A   Clear
11:55 PM 64.4 °F 39.2 °F 40% 30.16 in 10.0 mi WSW 3.5 mph - N/A   Clear